[[{"header":{"parameterUnit":"m.s-1","parameterCategory":1,"la1":30.2991,"la2":30.254,"lo1":-89.0895,"lo2":-89.0444,"dy":0.0017,"dx":0.0017,"nx":28,"ny":28,"refTime":"2025-12-19T03:00:00:Z","depth":0,"parameterNumber":2,"parameterNumberName":"U-component_of_WINDS"},"data":[0,0,0,0,0,0,0,0,0,0,0,0,0,0,0,0,0,0,0,0,0,0,0,0,0,0,0,0,0,0,0,0,0,0,0,0,0,0,0,0,0,0,0,0,0,0,0,0,0,0,0,0,0,0,0,0,0,0,1.3844,1.3844,0,1.3903,1.3904,1.3905,1.3919,1.3918,1.3918,1.3918,1.3977,1.3979,1.3981,0,0,0,0,0,0,0,0,0,0,0,0,0,1.3742,1.3744,1.3844,1.3844,1.3845,1.3903,1.3904,1.3905,1.3919,1.3918,1.3918,1.3917,1.3976,1.3978,1.3981,0,0,0,0,0,0,0,0,0,0,0,0,0,1.3792,1.3745,1.3844,1.3859,1.3861,1.3903,1.3904,1.3905,1.3919,1.3918,1.3918,1.3917,1.3975,1.3978,1.3981,1.4011,0,0,1.399,1.3991,0,0,0,0,0,0,0,0,1.3789,1.3796,1.3856,1.3858,1.3861,1.3903,1.389,1.394,1.3919,1.3897,1.3918,1.3917,1.3953,1.3957,1.397,1.4014,1.4016,1.399,1.3992,1.3993,1.3994,0,0,0,0,0,0,0,1.3786,1.3794,1.3867,1.3857,1.386,1.3863,1.387,1.3899,1.3927,1.3899,1.39,1.3907,1.3954,1.3967,1.3971,1.4017,1.399,1.3993,1.3995,1.3996,1.409,1.4091,0,0,0,0,0,0,1.378,1.3791,1.3865,1.3869,1.3823,1.3866,1.3873,1.389,1.3927,1.3932,1.3907,1.3907,1.3962,1.3968,1.3973,1.4011,1.3993,1.3996,1.3998,1.4089,1.409,1.4091,0,0,0,0,0,0,1.3778,1.3786,1.3863,1.383,1.384,1.3868,1.3887,1.3891,1.3905,1.3934,1.3938,1.3916,1.3962,1.3969,1.4002,1.4014,1.3997,1.4,1.4088,1.409,1.4091,1.4087,0,0,0,0,0,0,1.3775,1.3786,1.3797,1.383,1.3842,1.389,1.3888,1.3893,1.391,1.391,1.3943,1.3947,1.3962,1.3998,1.4005,1.4017,1.4002,1.4087,1.4089,1.409,1.4086,1.4088,1.409,0,0,0,0,0,1.3771,1.3793,1.3797,1.3806,1.3857,1.3891,1.3898,1.3914,1.3911,1.3923,1.3942,1.3946,1.4012,1.4001,1.4009,1.4023,1.4087,1.4089,1.409,1.4086,1.4088,1.409,0,0,0,0,0,0,1.3759,1.3797,1.3803,1.3836,1.386,1.3893,1.3909,1.3916,1.3941,1.394,1.396,1.3967,1.3999,1.4014,1.4001,1.4054,1.4049,1.4053,1.4043,1.4045,1.4047,1.4042,1.4005,0,0,0,0,0,1.3761,1.3785,1.3818,1.3844,1.3856,1.388,1.3896,1.3907,1.3932,1.3942,1.3964,1.3988,1.4014,1.403,1.4056,1.4089,1.4097,1.4103,1.4104,1.4106,1.4108,1.4128,1.4131,1.4097,1.4097,1.4097,0,0,1.3763,1.3787,1.3802,1.3842,1.3862,1.3887,1.3889,1.3915,1.3934,1.3946,1.3979,1.3995,1.4024,1.4057,1.4073,1.4071,1.412,1.4108,1.4109,1.411,1.413,1.4133,1.4136,1.4098,1.4098,1.4097,0,0,1.3781,1.3802,1.3827,1.3847,1.3878,1.3895,1.3901,1.3933,1.3945,1.3978,1.3988,1.4011,1.4055,1.4076,1.4092,1.412,1.4126,1.4128,1.4136,1.4155,1.4158,1.416,1.417,1.4174,1.413,1.413,1.413,0,1.3781,1.3819,1.3838,1.3865,1.3883,1.3897,1.3922,1.3941,1.3978,1.399,1.3988,1.4045,1.4065,1.4104,1.4111,1.4123,1.4131,1.4124,1.4156,1.4158,1.4161,1.4171,1.4175,1.413,1.413,1.413,1.413,0,1.3817,1.3844,1.3861,1.3897,1.3917,1.3943,1.3966,1.3984,1.3994,1.4011,1.4045,1.407,1.4102,1.4112,1.4121,1.4153,1.4151,1.4152,1.4147,1.4164,1.4174,1.4178,1.413,1.413,1.413,1.413,0,0,1.3828,1.3876,1.3882,1.3899,1.3935,1.3956,1.3984,1.4015,1.403,1.4056,1.4079,1.4118,1.412,1.4138,1.415,1.4167,1.4189,1.4167,1.4168,1.417,1.4226,1.4224,1.4228,1.4194,1.4194,1.4195,1.4223,0,1.385,1.3899,1.3918,1.3957,1.3983,1.3998,1.4021,1.4046,1.4063,1.4087,1.4106,1.4133,1.4134,1.4145,1.4162,1.4182,1.42,1.4181,1.4215,1.4216,1.4207,1.4233,1.4231,1.4257,1.4227,1.4228,1.4228,0,1.3882,1.3909,1.3952,1.3986,1.3998,1.4019,1.405,1.4073,1.4102,1.4113,1.4135,1.4147,1.4176,1.417,1.4211,1.4198,1.4213,1.4226,1.4227,1.423,1.4223,1.4237,1.4265,1.4269,1.4235,1.4234,1.4234,0,1.3885,1.3933,1.3965,1.3979,1.402,1.4035,1.4052,1.4081,1.4099,1.4127,1.4139,1.4169,1.4186,1.4209,1.4229,1.4223,1.4269,1.4264,1.4279,1.4278,1.4287,1.4286,1.4317,1.4298,1.4298,1.4298,1.4297,0,1.3908,1.3933,1.3967,1.3986,1.4016,1.4038,1.4066,1.4085,1.4111,1.4134,1.4149,1.4171,1.4196,1.4222,1.4238,1.427,1.4277,1.4287,1.4291,1.4285,1.4284,1.4295,1.4294,1.4299,1.4298,1.4298,1.4298,0,1.3915,1.3939,1.3975,1.4012,1.4022,1.4042,1.4073,1.4093,1.4111,1.4141,1.415,1.4179,1.421,1.4232,1.4272,1.4283,1.4317,1.4321,1.4307,1.4309,1.4322,1.4321,1.4362,1.4368,1.4344,1.4344,1.4345,0,1.3928,1.3948,1.3987,1.4005,1.4023,1.405,1.4069,1.4093,1.4112,1.4148,1.4164,1.4196,1.4223,1.4271,1.4296,1.4327,1.4331,1.4344,1.4336,1.433,1.4332,1.433,1.4332,1.4344,1.4345,1.4345,1.4345,0,1.3947,1.3959,1.3986,1.4018,1.4041,1.4067,1.4094,1.4107,1.4135,1.4157,1.4189,1.421,1.4251,1.4283,1.4317,1.4335,1.4345,1.4348,1.4353,1.4347,1.4338,1.4343,1.431,1.4346,1.4346,1.4346,1.4346,1.4346,1.3958,1.3977,1.4008,1.4038,1.4061,1.4086,1.4107,1.4129,1.4157,1.4192,1.4205,1.4238,1.4269,1.4315,1.4334,1.4361,1.436,1.4368,1.4369,1.4371,1.437,1.4335,1.4367,1.4367,1.4367,1.4367,1.4367,0,1.3978,1.3999,1.4027,1.4065,1.4089,1.4097,1.4128,1.4147,1.4177,1.4204,1.4231,1.4269,1.4301,1.4329,1.4362,1.4378,1.4383,1.4386,1.4384,1.4388,1.4369,1.4361,1.4381,1.4381,1.4381,1.4381,1.4381,1.4381,1.3991,1.4024,1.4039,1.4084,1.4106,1.4139,1.4156,1.4179,1.4202,1.4243,1.427,1.4289,1.4317,1.4352,1.4382,1.439,1.4401,1.4402,1.4411,1.4391,1.439,1.4388,1.4381,1.4405,1.4405,1.4429,1.4429,1.4429]},{"header":{"parameterUnit":"m.s-1","parameterCategory":1,"la1":30.2991,"la2":30.254,"lo1":-89.0895,"lo2":-89.0444,"dy":0.0017,"dx":0.0017,"nx":28,"ny":28,"refTime":"2025-12-19T03:00:00:Z","depth":0,"parameterNumber":3,"parameterNumberName":"V-component_of_WINDS"},"data":[0,0,0,0,0,0,0,0,0,0,0,0,0,0,0,0,0,0,0,0,0,0,0,0,0,0,0,0,0,0,0,0,0,0,0,0,0,0,0,0,0,0,0,0,0,0,0,0,0,0,0,0,0,0,0,0,0,0,-6.931,-6.9313,0,-6.9542,-6.9545,-6.9547,-6.9504,-6.95,-6.9496,-6.9492,-6.9726,-6.9736,-6.9746,0,0,0,0,0,0,0,0,0,0,0,0,0,-6.8829,-6.8838,-6.931,-6.9313,-6.9316,-6.9542,-6.9545,-6.9548,-6.9505,-6.95,-6.9495,-6.949,-6.9722,-6.9734,-6.9746,0,0,0,0,0,0,0,0,0,0,0,0,0,-6.9047,-6.8841,-6.9309,-6.9322,-6.9325,-6.9541,-6.9545,-6.9549,-6.9506,-6.95,-6.9493,-6.9488,-6.9718,-6.9733,-6.9748,-6.9965,0,0,-6.9794,-6.9801,0,0,0,0,0,0,0,0,-6.9034,-6.9064,-6.9317,-6.9321,-6.9325,-6.9488,-6.9461,-6.9688,-6.9507,-6.9437,-6.9492,-6.9485,-6.9651,-6.9672,-6.9729,-6.9976,-6.9986,-6.9796,-6.9805,-6.9811,-6.9816,0,0,0,0,0,0,0,-6.9019,-6.9054,-6.9402,-6.9321,-6.9326,-6.9315,-6.9339,-6.9504,-6.9576,-6.9443,-6.944,-6.9468,-6.9652,-6.9714,-6.9734,-6.999,-6.9795,-6.9809,-6.9818,-6.9824,-7.0431,-7.0438,0,0,0,0,0,0,-6.9001,-6.9042,-6.9394,-6.9409,-6.9162,-6.9329,-6.9356,-6.9442,-6.9574,-6.9588,-6.9473,-6.9466,-6.9691,-6.9716,-6.9742,-7.0008,-6.9811,-6.9825,-6.9834,-7.0424,-7.0432,-7.044,0,0,0,0,0,0,-6.899,-6.9032,-6.9385,-6.9225,-6.9269,-6.9344,-6.9441,-6.945,-6.9511,-6.9597,-6.961,-6.9523,-6.9687,-6.9721,-6.9911,-7.0015,-6.9832,-6.9846,-7.0416,-7.0427,-7.0436,-7.054,0,0,0,0,0,0,-6.8977,-6.9029,-6.9113,-6.9227,-6.9278,-6.9551,-6.9447,-6.9459,-6.9538,-6.953,-6.9648,-6.9661,-6.9685,-6.9889,-6.9926,-7.0033,-6.9858,-7.0407,-7.042,-7.0433,-7.0528,-7.0553,-7.0574,0,0,0,0,0,-6.896,-6.9131,-6.9117,-6.916,-6.9384,-6.9557,-6.9586,-6.9612,-6.9547,-6.9632,-6.9687,-6.9657,-6.9997,-6.9909,-6.995,-7.0063,-7.04,-7.0417,-7.0432,-7.0517,-7.0548,-7.0574,0,0,0,0,0,0,-6.9025,-6.9146,-6.9132,-6.9346,-6.9442,-6.955,-6.9657,-6.9643,-6.9758,-6.9746,-6.9771,-6.9798,-6.9992,-7.0046,-6.9945,-7.0282,-7.019,-7.0215,-7.024,-7.027,-7.0293,-7.0277,-6.987,0,0,0,0,0,-6.9065,-6.9196,-6.9294,-6.9473,-6.9523,-6.9582,-6.9658,-6.967,-6.977,-6.981,-6.9879,-6.9977,-7.0106,-7.0191,-7.0314,-7.0535,-7.0561,-7.0633,-7.0656,-7.0675,-7.0697,-7.082,-7.0854,-7.0492,-7.0492,-7.0492,0,0,-6.9147,-6.923,-6.9311,-6.9489,-6.9565,-6.9701,-6.9616,-6.9763,-6.9864,-6.9832,-7.0018,-7.0072,-7.0182,-7.039,-7.0485,-7.0441,-7.0802,-7.0695,-7.0709,-7.0721,-7.084,-7.0874,-7.0905,-7.0503,-7.0501,-7.0499,0,0,-6.9368,-6.9443,-6.9602,-6.968,-6.9797,-6.9836,-6.9874,-6.9985,-7.0021,-7.0208,-7.0188,-7.0307,-7.0528,-7.0609,-7.0679,-7.0934,-7.0911,-7.0972,-7.1095,-7.1216,-7.1244,-7.127,-7.1363,-7.1396,-7.0994,-7.0994,-7.0994,0,-6.9456,-6.9661,-6.9685,-6.9835,-6.9915,-6.9894,-7.0056,-7.013,-7.028,-7.0336,-7.0285,-7.0564,-7.0637,-7.0865,-7.0927,-7.0983,-7.1029,-7.096,-7.1238,-7.1264,-7.1288,-7.1378,-7.1412,-7.1001,-7.1,-7.0999,-7.0999,0,-6.9764,-6.9907,-7.0021,-7.017,-7.0262,-7.0417,-7.0465,-7.0555,-7.0559,-7.0603,-7.0795,-7.0882,-7.1024,-7.1078,-7.1082,-7.1308,-7.1277,-7.1232,-7.114,-7.1329,-7.1414,-7.1448,-7.1011,-7.1008,-7.1006,-7.1004,0,0,-7.0033,-7.0195,-7.0236,-7.0305,-7.0433,-7.0544,-7.0698,-7.0839,-7.0917,-7.1022,-7.1153,-7.1342,-7.1302,-7.1382,-7.1394,-7.15,-7.1699,-7.1442,-7.1445,-7.1489,-7.1957,-7.1992,-7.2031,-7.1685,-7.1691,-7.1697,-7.1948,0,-7.0267,-7.0542,-7.057,-7.0815,-7.0949,-7.0931,-7.1066,-7.116,-7.1205,-7.1325,-7.1374,-7.1509,-7.1445,-7.1493,-7.1596,-7.1653,-7.1794,-7.1635,-7.1808,-7.1814,-7.1784,-7.2075,-7.2112,-7.2346,-7.1981,-7.1987,-7.1991,0,-7.0578,-7.0695,-7.0955,-7.1068,-7.1125,-7.1246,-7.1378,-7.1492,-7.1598,-7.1624,-7.1715,-7.1714,-7.1874,-7.1775,-7.1996,-7.1888,-7.196,-7.1999,-7.2008,-7.2027,-7.1916,-7.2104,-7.242,-7.2457,-7.2043,-7.2038,-7.2035,0,-7.0752,-7.0973,-7.1159,-7.1217,-7.1352,-7.1439,-7.1499,-7.1599,-7.1682,-7.1798,-7.1853,-7.1984,-7.2057,-7.2159,-7.2195,-7.2118,-7.2416,-7.2318,-7.2443,-7.2442,-7.2508,-7.2504,-7.2843,-7.255,-7.2549,-7.2549,-7.2548,0,-7.1013,-7.1173,-7.1239,-7.1353,-7.1533,-7.1562,-7.1739,-7.1795,-7.1885,-7.2009,-7.2001,-7.2118,-7.2156,-7.228,-7.2308,-7.2489,-7.2521,-7.2547,-7.2553,-7.255,-7.2547,-7.2599,-7.2585,-7.2558,-7.2556,-7.2554,-7.2553,0,-7.1237,-7.1288,-7.1489,-7.1601,-7.1633,-7.1761,-7.1857,-7.1968,-7.2012,-7.217,-7.2209,-7.2279,-7.2425,-7.247,-7.2644,-7.2663,-7.2876,-7.2866,-7.2841,-7.2842,-7.2965,-7.2954,-7.3352,-7.3407,-7.3075,-7.3079,-7.3081,0,-7.1402,-7.1525,-7.1652,-7.1736,-7.1801,-7.1935,-7.2022,-7.2056,-7.2146,-7.2278,-7.2373,-7.2517,-7.2635,-7.2868,-7.2934,-7.3069,-7.3063,-7.3194,-7.3083,-7.3077,-7.3069,-7.3063,-7.3076,-7.3215,-7.3218,-7.3221,-7.3223,0,-7.1689,-7.1709,-7.1834,-7.197,-7.2074,-7.2182,-7.2286,-7.2355,-7.2404,-7.2506,-7.2656,-7.2748,-7.2928,-7.3072,-7.3209,-7.327,-7.3257,-7.3258,-7.3294,-7.3293,-7.3275,-7.329,-7.2901,-7.3249,-7.3246,-7.3244,-7.3243,-7.3242,-7.1891,-7.2001,-7.2109,-7.225,-7.2332,-7.243,-7.2541,-7.26,-7.2726,-7.2877,-7.2889,-7.3052,-7.3157,-7.334,-7.3408,-7.3536,-7.3499,-7.355,-7.3564,-7.3577,-7.3589,-7.3253,-7.3561,-7.356,-7.3559,-7.3559,-7.3558,0,-7.2181,-7.225,-7.2379,-7.2526,-7.2638,-7.2616,-7.273,-7.2825,-7.2969,-7.3068,-7.3186,-7.3359,-7.35,-7.3578,-7.3718,-7.3806,-7.3803,-7.3842,-7.3837,-7.3852,-7.3613,-7.3569,-7.3842,-7.3842,-7.3842,-7.3842,-7.3842,-7.3842,-7.2345,-7.2532,-7.2564,-7.2792,-7.2859,-7.3021,-7.3089,-7.318,-7.326,-7.3455,-7.3573,-7.3623,-7.3714,-7.3862,-7.399,-7.4009,-7.4062,-7.4106,-7.4122,-7.3897,-7.3868,-7.3841,-7.38,-7.4117,-7.4117,-7.435,-7.4353,-7.4354]}]]